Location: Observatoire
(46.1952°N, 5.3391°E)
Time: 04:53:34
(UTC+01:00)

Explorer 7 - Pass Details

Date: 23 February 2026
Orbit: 430 x 542 km, 50.2° (Epoch: 7 March)

Event Time Altitude Azimuth Distance (km) Brightness Sun altitude
Rises 13:40:30 0° 229° (SW) 2,390 10.8 33.0°
Reaches altitude 10° 13:42:37 10° 223° (SW) 1,533 10.2 33.0°
Maximum altitude 13:45:57 48° 148° (SSE) 582 7.9 32.8°
Drops below altitude 10° 13:49:23 10° 73° (ENE) 1,579 9.0 32.6°
Sets 13:51:36 0° 68° (ENE) 2,472 9.8 32.5°
